Weather reports worldwide

Advertisment
Exeter Airport No. 2, United Kingdom (3844): temperature & dewpoint: 11.09.2019 12:00:00 - 17.09.2019 12:00:00 (BST)Exeter Airport No. 2, United Kingdom (3844): wind speed: 11.09.2019 12:00:00 - 17.09.2019 12:00:00 (BST)Exeter Airport No. 2, United Kingdom (3844): wind direction: 11.09.2019 12:00:00 - 17.09.2019 12:00:00 (BST)Exeter Airport No. 2, United Kingdom (3844): reduced air pressure: 11.09.2019 12:00:00 - 17.09.2019 12:00:00 (BST)Exeter Airport No. 2, United Kingdom (3844): visibility: 11.09.2019 12:00:00 - 17.09.2019 12:00:00 (BST)Exeter Airport No. 2, United Kingdom (3844): sunshine duration: 11.09.2019 12:00:00 - 17.09.2019 12:00:00 (BST)Exeter Airport No. 2, United Kingdom (3844): precipitation: 11.09.2019 12:00:00 - 17.09.2019 12:00:00 (BST)
Date & Time tt [°C] td [°C] ff [km/h] ff [kn] dd ppp [hPa] vv [km] sd [min] rr [mm]
17.09.2019 12:00:00 - - - - - - - - 0,0
17.09.2019 11:00:00 16,2 9,8 9 5 NE 1026,1 35 60 0,0
17.09.2019 10:00:00 15,1 9,3 11 6 NNE 1026,2 40 60 0,0
17.09.2019 09:00:00 13,9 9,6 8 4 NNE 1026,0 35 42 0,0
17.09.2019 08:00:00 13,2 9,4 5 3 NE 1025,3 35 24 0,0
17.09.2019 07:00:00 12,9 9,8 4 2 NE 1024,8 35 0 0,0
17.09.2019 06:00:00 13,2 10,0 4 2 NNE 1024,2 40 0 0,0
17.09.2019 05:00:00 13,6 10,7 9 5 NNE 1024,0 30 0 0,0
17.09.2019 04:00:00 14,2 11,6 11 6 NE 1023,7 18 0 0,0
17.09.2019 03:00:00 15,6 14,0 5 3 NE 1023,5 15 0 0,0
17.09.2019 02:00:00 15,9 14,8 4 2 NNE 1023,6 12 0 0,0
17.09.2019 01:00:00 16,0 15,0 4 2 NE 1023,2 14 - 0,0
17.09.2019 00:00:00 16,3 15,3 5 3 N 1023,4 23 0 0,0
16.09.2019 23:00:00 16,1 15,4 8 4 NW 1023,4 26 0 0,0
16.09.2019 22:00:00 15,8 15,1 8 4 NW 1023,2 30 0 0,0
16.09.2019 21:00:00 15,7 14,8 4 2 W 1023,0 35 0 0,0
16.09.2019 20:00:00 16,6 14,7 8 4 WNW 1022,7 55 0 0,0
16.09.2019 19:00:00 18,5 15,5 9 5 NW 1022,3 65 6 0,0
16.09.2019 18:00:00 20,0 15,6 11 6 NW 1022,2 70 18 0,0
16.09.2019 17:00:00 19,7 15,7 13 7 WNW 1022,3 65 0 0,0
16.09.2019 16:00:00 19,9 16,0 11 6 NW 1022,2 75 6 0,0
16.09.2019 15:00:00 19,6 15,8 11 6 NW 1022,5 75 0 0,0
16.09.2019 14:00:00 19,3 15,6 13 7 NW 1023,0 50 24 0,0
16.09.2019 13:00:00 20,0 15,6 15 8 WNW 1022,9 55 6 0,0
16.09.2019 12:00:00 18,3 15,3 11 6 NW 1023,2 55 0 0,0
16.09.2019 11:00:00 17,3 14,8 11 6 WNW 1023,3 40 0 0,0
16.09.2019 10:00:00 16,9 14,7 11 6 W 1023,2 55 0 0,0
16.09.2019 09:00:00 16,2 14,4 11 6 WNW 1022,9 65 0 0,0
16.09.2019 08:00:00 15,3 14,2 9 5 WNW 1022,7 45 0 0,0
16.09.2019 07:00:00 14,7 13,8 8 4 NW 1022,5 50 0 0,0
16.09.2019 06:00:00 14,5 13,8 8 4 WNW 1022,6 35 0 0,0
16.09.2019 05:00:00 14,2 13,5 8 4 WNW 1022,8 45 0 0,0
16.09.2019 04:00:00 14,3 13,3 9 5 NNW 1023,1 65 0 0,0
16.09.2019 03:00:00 14,7 13,3 9 5 NNW 1023,4 55 0 0,0
16.09.2019 02:00:00 14,9 13,5 9 5 NNW 1023,9 55 0 0,0
16.09.2019 01:00:00 15,1 13,7 11 6 NW 1024,2 40 - 0,0
16.09.2019 00:00:00 15,4 13,9 9 5 WNW 1024,3 30 0 0,0
15.09.2019 23:00:00 15,9 14,3 8 4 WNW 1024,5 45 0 0,0
15.09.2019 22:00:00 15,9 14,2 8 4 NW 1024,6 29 0 0,0
15.09.2019 21:00:00 16,0 14,1 13 7 NW 1024,7 40 0 0,0
15.09.2019 20:00:00 16,6 14,2 11 6 NW 1024,2 24 0 0,0
15.09.2019 19:00:00 20,1 15,1 11 6 WNW 1023,6 4,9 54 0,0
15.09.2019 18:00:00 21,7 15,4 9 5 WNW 1023,3 40 60 0,0
15.09.2019 17:00:00 22,7 15,2 11 6 NNW 1023,8 50 60 0,0
15.09.2019 16:00:00 23,6 15,6 9 5 WNW 1024,2 50 60 0,0
15.09.2019 15:00:00 23,2 15,3 9 5 W 1024,5 12 60 0,0
15.09.2019 14:00:00 22,4 15,1 11 6 WNW 1025,1 35 60 0,0
15.09.2019 13:00:00 21,0 14,3 11 6 WNW 1025,7 30 60 0,0
15.09.2019 12:00:00 19,5 13,4 11 6 WNW 1026,3 13 60 0,0
15.09.2019 11:00:00 17,9 13,2 9 5 NW 1026,5 40 60 0,0
15.09.2019 10:00:00 14,9 13,8 5 3 NW 1027,0 26 60 0,0
15.09.2019 09:00:00 12,1 12,1 4 2 ENE 1026,6 4,4 54 0,0
15.09.2019 08:00:00 9,1 9,1 4 2 NE 1026,8 0,2 6 0,0
15.09.2019 07:00:00 10,1 10,0 4 2 N 1026,8 2,4 0 0,0
15.09.2019 06:00:00 9,6 9,5 2 1 ENE 1026,8 0,3 0 0,0
15.09.2019 05:00:00 8,6 8,5 4 2 NE 1026,9 9 0 0,0
15.09.2019 04:00:00 6,5 6,4 4 2 ENE 1027,1 1,3 0 0,0
15.09.2019 03:00:00 7,4 7,3 4 2 NE 1027,6 2,7 0 0,0
15.09.2019 02:00:00 8,5 8,3 4 2 NE 1028,0 3,2 0 0,0
15.09.2019 01:00:00 7,4 7,2 5 3 E 1028,4 5 - 0,0
15.09.2019 00:00:00 8,1 7,7 4 2 ESE 1028,7 8 0 0,0
14.09.2019 23:00:00 9,0 8,5 4 2 ESE 1028,7 14 0 0,0
14.09.2019 22:00:00 9,0 8,3 4 2 ENE 1029,2 8 0 0,0
14.09.2019 21:00:00 11,3 9,6 4 2 ENE 1029,1 16 0 0,0
14.09.2019 20:00:00 14,7 12,5 4 2 S 1029,3 18 24 0,0
14.09.2019 19:00:00 17,4 12,5 8 4 SSW 1029,2 30 60 0,0
14.09.2019 18:00:00 19,3 8,0 8 4 SSE 1029,2 55 60 0,0
14.09.2019 17:00:00 20,1 10,9 8 4 SSE 1029,4 45 60 0,0
14.09.2019 16:00:00 20,5 9,8 4 2 S 1030,1 40 60 0,0
14.09.2019 15:00:00 20,2 10,0 5 3 E 1030,9 40 60 0,0
14.09.2019 14:00:00 18,8 11,5 11 6 SSE 1031,6 35 60 0,0
14.09.2019 13:00:00 19,3 12,8 9 5 SE 1032,0 35 60 0,0
14.09.2019 12:00:00 18,7 11,0 9 5 SE 1032,7 35 60 0,0
14.09.2019 11:00:00 17,3 11,8 2 1 ESE 1033,1 29 60 0,0
14.09.2019 10:00:00 14,2 10,3 2 1 NE 1033,6 30 60 0,0
14.09.2019 09:00:00 11,3 9,1 2 1 E 1034,0 29 54 0,0
14.09.2019 08:00:00 7,5 7,3 2 1 NE 1034,1 22 42 0,0
14.09.2019 07:00:00 5,3 4,9 4 2 NE 1034,1 14 0 0,0
14.09.2019 06:00:00 5,4 4,9 4 2 ENE 1034,0 12 0 0,0
14.09.2019 05:00:00 6,7 6,2 2 1 SSW 1034,0 24 0 0,0
14.09.2019 04:00:00 6,6 5,5 2 1 WNW 1034,4 26 0 0,0
14.09.2019 03:00:00 8,0 6,8 4 2 NNE 1034,8 30 0 0,0
14.09.2019 02:00:00 7,3 6,4 2 1 NNE 1034,9 25 0 0,0
14.09.2019 01:00:00 8,2 7,1 4 2 NNW 1034,6 26 - 0,0
14.09.2019 00:00:00 8,2 7,4 2 1 ENE 1034,8 20 0 0,0
13.09.2019 23:00:00 10,1 8,4 4 2 NE 1035,2 27 0 0,0
13.09.2019 22:00:00 10,8 8,8 2 1 NE 1035,4 29 0 0,0
13.09.2019 21:00:00 11,9 9,3 2 1 ENE 1035,3 30 0 0,0
13.09.2019 20:00:00 15,2 9,3 8 4 NNE 1034,8 35 24 0,0
13.09.2019 19:00:00 17,5 9,1 9 5 NE 1034,3 40 60 0,0
13.09.2019 18:00:00 19,2 9,2 9 5 NE 1034,2 40 60 0,0
13.09.2019 17:00:00 19,9 9,5 11 6 NE 1034,4 40 60 0,0
13.09.2019 16:00:00 19,8 7,5 9 5 NE 1034,4 45 60 0,0
13.09.2019 15:00:00 19,7 8,8 9 5 NE 1034,8 40 60 0,0
13.09.2019 14:00:00 19,1 10,3 9 5 NNE 1034,7 40 60 0,0
13.09.2019 13:00:00 18,3 9,7 9 5 NNE 1035,1 40 60 0,0
13.09.2019 12:00:00 18,0 10,8 11 6 NNE 1035,3 40 60 0,0
13.09.2019 11:00:00 16,8 10,0 9 5 NNE 1035,3 45 60 0,0
13.09.2019 10:00:00 16,0 10,3 11 6 NE 1035,2 35 60 0,0
13.09.2019 09:00:00 14,9 10,6 5 3 NNE 1034,8 40 60 0,0
13.09.2019 08:00:00 12,4 11,4 2 1 NE 1033,9 45 18 0,0
13.09.2019 07:00:00 13,0 10,8 9 5 N 1033,2 50 0 0,0
13.09.2019 06:00:00 15,0 13,5 5 3 NNE 1032,7 35 0 0,0
13.09.2019 05:00:00 15,1 14,7 5 3 NW 1031,9 18 0 0,0
13.09.2019 04:00:00 16,3 15,6 8 4 NW 1031,3 29 0 0,0
13.09.2019 03:00:00 16,7 16,0 4 2 WNW 1030,9 40 0 0,0
13.09.2019 02:00:00 16,9 16,2 8 4 WNW 1030,8 50 0 0,0
13.09.2019 01:00:00 16,9 16,3 4 2 W 1030,4 23 - 0,0
13.09.2019 00:00:00 16,9 16,2 8 4 SSW 1030,1 21 0 0,0
12.09.2019 23:00:00 17,1 16,0 8 4 SW 1030,0 9 0 0,0
12.09.2019 22:00:00 17,6 15,5 11 6 SW 1029,7 45 0 0,0
12.09.2019 21:00:00 17,5 14,9 13 7 SW 1029,4 26 0 0,0
12.09.2019 20:00:00 18,3 14,8 18 10 SW 1028,9 25 0 0,0
12.09.2019 19:00:00 19,2 14,8 18 10 SW 1028,6 28 0 0,0
12.09.2019 18:00:00 20,5 14,9 22 12 SW 1028,3 29 54 0,0
12.09.2019 17:00:00 20,7 15,2 24 13 SW 1028,0 30 42 0,0
12.09.2019 16:00:00 20,8 16,5 22 12 SW 1028,4 29 0 0,0
12.09.2019 15:00:00 20,9 16,3 24 13 SW 1028,4 30 24 0,0
12.09.2019 14:00:00 21,4 16,3 22 12 WSW 1028,3 40 6 0,0
12.09.2019 13:00:00 20,9 15,9 16 9 WSW 1028,3 50 6 0,0
12.09.2019 12:00:00 19,7 15,7 21 11 WSW 1028,7 55 0 0,0
12.09.2019 11:00:00 20,1 16,1 13 7 SW 1028,5 65 0 0,0
12.09.2019 10:00:00 18,5 15,9 13 7 SSW 1028,1 50 0 0,0
12.09.2019 09:00:00 18,6 16,2 15 8 SSW 1027,4 50 18 0,0
12.09.2019 08:00:00 17,3 16,2 11 6 SSW 1027,3 30 12 0,0
12.09.2019 07:00:00 17,0 16,2 13 7 S 1026,6 24 0 0,0
12.09.2019 06:00:00 17,0 16,1 11 6 SSW 1026,1 24 0 0,0
12.09.2019 05:00:00 17,1 15,5 8 4 SSW 1025,7 55 0 0,0
12.09.2019 04:00:00 16,7 15,1 4 2 S 1025,8 40 0 0,0
12.09.2019 03:00:00 17,1 15,1 9 5 W 1025,5 22 0 0,0
12.09.2019 02:00:00 16,1 14,6 11 6 WSW 1025,3 8 0 0,0
12.09.2019 01:00:00 16,6 14,4 13 7 W 1025,3 9 - 0,0
12.09.2019 00:00:00 15,8 14,2 11 6 W 1025,1 30 0 0,0
11.09.2019 23:00:00 16,6 14,7 8 4 W 1024,9 27 0 0,0
11.09.2019 22:00:00 16,4 14,4 11 6 W 1024,6 29 0 0,0
11.09.2019 21:00:00 17,5 15,4 15 8 W 1024,3 20 0 0,0
11.09.2019 20:00:00 18,2 15,7 13 7 W 1023,4 13 0 0,0
11.09.2019 19:00:00 18,2 16,4 9 5 WNW 1022,8 8 0 0,0
11.09.2019 18:00:00 19,0 16,3 15 8 W 1022,3 60 0 0,0
11.09.2019 17:00:00 18,9 16,6 21 11 W 1022,1 30 0 0,0
11.09.2019 16:00:00 20,1 16,3 21 11 W 1021,7 60 6 0,0
11.09.2019 15:00:00 20,5 16,3 24 13 W 1021,1 65 0 0,0
11.09.2019 14:00:00 20,2 16,2 22 12 W 1021,2 65 0 0,0
11.09.2019 13:00:00 20,3 16,2 22 12 W 1020,8 65 0 0,0
11.09.2019 12:00:00 19,5 15,8 24 13 W 1020,8 55 0 0,0

tt = temperature
td = dewpoint
ff = wind speed
dd = wind direction
ppp = reduced air pressure
vv = visibility
sd = sunshine duration
rr = precipitation

Next stations